Location: Catstown
(52.4386°N, 7.2633°W)
Time: 23:20:14
(UTC+00:00)

USA 234 - Pass Details

Date: 18 September 2020
Orbit: 1102 x 1106 km, 123.0° (Epoch: 16 October)

Event Time Altitude Azimuth Distance (km) Brightness Sun altitude
Rises 22:01:38 0° 62° (ENE) 3,927 6.0 -28.5°
Enters shadow 22:03:21 - 62° (ENE) 3,259 5.6 -28.7°
Exits shadow 22:06:55 28° 64° (ENE) 1,940 4.4 -29.1°
Maximum altitude 22:10:42 88° 154° (SSE) 1,110 3.1 -29.4°
Drops below altitude 10° 22:17:16 10° 244° (WSW) 2,962 5.6 -30.0°
Sets 22:19:45 0° 245° (WSW) 3,918 6.3 -30.3°
